Location: ??????????
(54.5635°N, 39.4762°E)
Time: 05:14:45
(UTC+00:00)

Daily predictions for brighter satellites

Satellite Brightness Start Highest point End
(mag) Time Altitude Azimuth Time Altitude Azimuth Time Altitude Azimuth
KORONAS-FOTON 4.4 00:05:10 27° WSW 00:06:07 33° WNW 00:09:12 10° N
USA 290 3.5 00:05:18 18° SSE 00:07:10 34° ESE 00:10:05 10° NE
Cosmos 372 Rocket 4.1 00:02:17 10° NNW 00:07:30 76° ENE 00:12:38 10° SSE
DMSP B5D2-2 4.0 00:04:37 10° S 00:09:46 67° WSW 00:14:57 10° NNW
Cosmos 1536 4.4 00:09:40 10° NW 00:12:01 17° W 00:12:16 16° W
IDEFIX/ARIANE 42P 3.1 00:08:26 10° N 00:13:23 46° WNW 00:16:41 20° SW
Cosmos 1812 Rocket 3.5 00:12:34 21° SSW 00:15:26 74° WNW 00:19:48 10° N
Meteor 2-20 4.4 00:10:34 15° S 00:15:53 87° W 00:22:04 10° NNE
Envisat 3.1 00:11:35 10° NNE 00:16:42 76° ESE 00:21:15 13° S
COSMOS 2441 4.3 00:12:16 10° NNE 00:17:04 75° WNW 00:20:35 18° SSW
ATLAS 2AS CENTAUR R/B 3.7 00:11:31 10° W 00:18:01 42° NNW 00:24:26 10° ENE
Aureole 1 Rocket 3.0 00:14:31 10° NNW 00:18:28 71° WSW 00:23:26 10° SSE
USA 234 3.3 00:15:58 10° SE 00:22:24 58° SW 00:28:52 10° WNW
JB-3 4.2 00:22:46 10° SSE 00:26:22 80° ENE 00:29:59 10° NNW
Cosmos 2084 Rocket 4.0 00:23:11 10° WNW 00:27:01 34° SW 00:30:51 10° SSE
Meteor 1-27 Rocket 4.0 00:21:23 10° S 00:27:18 75° E 00:33:14 10° NNE
Iridium 4 Rocket 3.4 00:23:28 15° SSW 00:27:26 69° W 00:32:36 10° N
ADEOS II 2.6 00:24:20 10° NNE 00:29:32 60° ESE 00:34:42 10° S
MOZ.5/SAFIR/RUBIN 5/SL-8 4.5 00:27:09 17° SSW 00:30:10 34° W 00:34:25 10° NNW
Cosmos 990 Rocket 4.4 00:25:25 10° NW 00:30:10 39° WSW 00:34:55 10° S
SWARM A 4.3 00:28:10 10° N 00:31:23 56° W 00:33:48 16° SSW
Cosmos 1707 4.4 00:31:24 10° WNW 00:32:10 11° WNW 00:33:10 10° NW
Cosmos 44 Rocket 4.0 00:29:47 14° WSW 00:33:58 51° NNW 00:39:03 10° NE
H-2A R/B 2.4 00:31:28 12° S 00:34:37 45° W 00:38:05 10° NNW
ADEOS Rocket 3.7 00:27:30 10° NNE 00:34:51 63° WNW 00:41:53 13° SW
Cosmos 1975 3.9 00:32:05 10° NW 00:34:58 22° W 00:36:20 18° WSW
ALOS 2.2 00:32:19 10° NNE 00:36:55 87° ESE 00:41:28 10° SSW
COSMOS 2406 3.8 00:32:29 15° WSW 00:37:02 48° NW 00:42:37 10° NNE
SL-16 R/B 3.0 00:30:59 10° SSE 00:37:10 68° ENE 00:43:25 10° NNW
Cosmos 1763 Rocket 3.6 00:33:22 16° SW 00:37:41 75° WNW 00:43:01 10° NNE
CZ-2D R/B 2.1 00:32:25 10° NNE 00:37:42 87° ESE 00:43:01 10° SSW
Cosmos 1842 Rocket 4.4 00:33:39 10° SSE 00:37:47 48° E 00:41:58 10° NNE
COSMOS 2428 3.0 00:32:04 10° NNW 00:37:49 73° NE 00:43:30 10° SE
Alouette 2 Rocket 3.4 00:35:09 10° NNW 00:39:29 59° W 00:43:00 10° S
Cosmos 1238 Rocket 1.9 00:39:50 14° S 00:42:14 87° W 00:45:20 10° N
Okean 3 Rocket 4.0 00:42:44 10° N 00:47:10 66° ENE 00:51:36 10° SSE
Sich 1 3.3 00:43:40 10° N 00:47:50 68° ENE 00:51:57 10° SSE
Cosmos 1898 Rocket 3.4 00:43:03 10° NNW 00:48:13 73° WSW 00:53:21 10° SSE
SL-19 R/B 4.5 00:44:31 10° NNE 00:50:11 83° ESE 00:56:08 10° SSW
Cosmos 1937 Rocket 3.5 00:47:39 10° NNW 00:52:54 86° WSW 00:58:04 10° SSE
Cosmos 1607 4.5 00:47:22 11° WSW 00:53:12 53° NNW 00:59:23 10° NE
Cosmos 2360 Rocket 3.1 00:48:33 10° NW 00:53:15 27° WSW 00:57:56 10° SSW
Cosmos 1758 4.1 00:49:58 10° N 00:53:33 49° ENE 00:57:04 10° SSE
Cosmos 2333 Rocket 3.6 00:50:19 10° WNW 00:53:54 17° W 00:57:04 11° SW
Meteor 2-10 Rocket 3.5 00:56:13 10° NNW 01:01:18 76° W 01:06:32 10° S
Cosmos 1553 Rocket 4.2 00:58:20 10° S 01:04:31 79° E 01:10:52 10° NNE
Cosmos 2082 Rocket 3.8 01:00:36 10° W 01:05:18 25° NNW 01:10:00 10° NNE
Cosmos 540 Rocket 3.8 01:01:37 11° SW 01:06:29 53° WNW 01:11:33 10° NNE
Resurs 1-4 Rocket 2.4 01:01:20 10° N 01:06:32 55° WNW 01:11:41 10° SW
H-2A R/B 3.0 01:03:36 10° NNE 01:07:30 44° E 01:11:18 10° S
Cosmos 2322 Rocket 3.4 01:04:18 10° NW 01:08:17 20° W 01:12:17 10° SW
Cosmos 2221 4.0 01:07:42 10° WSW 01:10:49 20° WNW 01:13:57 10° NNW
Cosmos 468 Rocket 4.1 01:07:05 10° SSW 01:12:22 75° WNW 01:17:42 10° NNE
ACS3 Solar Sail 3.6 01:09:41 10° NNW 01:13:03 16° NW 01:16:26 10° W
CZ-2C R/B 4.0 01:11:20 10° NNE 01:15:52 36° E 01:20:16 10° SSE
Cosmos 1833 4.3 01:12:26 10° SW 01:18:08 70° NW 01:23:49 10° NNE
USA 305 -0.6 01:16:40 10° W 01:18:28 72° S 01:19:19 10° ESE
Cosmos 1766 Rocket 4.5 01:15:02 10° NNW 01:18:48 29° W 01:22:32 10° SSW
NOSS 3-3 (A) 4.4 01:14:41 10° WSW 01:20:12 56° NNW 01:26:58 10° NE
Cosmos 1340 Rocket 4.0 01:17:08 10° N 01:20:44 44° ENE 01:24:21 10° SE
H-2A R/B 2.3 01:16:16 10° N 01:21:16 57° WNW 01:26:22 10° SW
Cosmos 2219 Rocket 3.1 01:17:58 10° NW 01:22:32 26° WSW 01:27:05 10° SSW
Cosmos 2237 Rocket 2.6 01:17:17 10° NNW 01:23:01 71° NE 01:28:42 10° SE
Cosmos 1980 4.0 01:19:11 10° NNW 01:24:52 77° NE 01:30:32 10° SE
USA 267 3.4 01:19:46 10° ENE 01:26:22 81° SSE 01:32:58 10° WSW
BREEZE-M DEB (TANK) 4.4 01:22:04 10° WSW 01:40:02 54° S 01:44:13 10° E
